Willow Run Airport Detroit US
ICAO: KYIP
IATA: YIP
Category: Medium
Scheduled Services: No

Elevation: 716 ft
TransAlt. 18000 ft.

Airport Communications:
DETROIT APP/DEP:118.95
ASOS:132.35
ATIS:127.425
GND:121.75
TWR:125.275

KYIP Zoom In..

If you have problems with the map follow the link
https://www.worldairports.se/pages/airport.php?
ICAO=KYIP

Runways:

(A) RW 05L length 5996 ft width 160 ft
---- / hdg 53

(B) RW 05R length 7543 ft width 160 ft
ILS 109.50 / hdg 53

(C) RW 09 length 7292 ft width 160 ft
---- / hdg 95

(D) RW 14 length 6312 ft width 160 ft
---- / hdg 142

(E) RW 23L length 7543 ft width 160 ft
ILS 109.50 / hdg 233

(F) RW 23R length 5996 ft width 160 ft
---- / hdg 233

(G) RW 27 length 7292 ft width 160 ft
---- / hdg 275

(H) RW 32 length 6312 ft width 160 ft
---- / hdg 322

Location; KYIP
Day. 19 / Time. 12.53 Zulu
* Altimeter: 30.13
* Temperature: -01° c. -30.2°f.
* Wind from: 220° Speed 03 kn.
Dewpoint: -03° c.
Visibility: 1/8 Statute Miles.
Conditions: Freezing fog.

KYIP 191253Z 22003KT 1/8SM R05R/1000V1200FT FZFG VV002 M01/M03 A3013 RMK AO2 SLP208 T10111028


Wind From 220°
Speed 03 kn.

 
 
jpsmedia.com for Web Design worldairports.se 2018   terms of use